EW9904 Weather Reports


Display with metric or nautical units.
time (UTC)temp
F
wind
direction
speed
MPH
gust
MPH
rain 1hr
in
rain 24hr
in
rain mn
in
humidity
%
barometer
mb
20260508214502 68 197 4.0 12.0 0.00 0.02 0.00 44 1012.0
20260508214002 68 201 4.0 12.0 0.00 0.02 0.00 42 1012.1
20260508213503 68 242 4.0 11.0 0.00 0.02 0.00 41 1012.2
20260508213003 68 204 4.0 11.0 0.00 0.02 0.00 40 1012.2
20260508212503 68 277 3.0 11.0 0.00 0.02 0.00 42 1012.2
20260508212004 69 242 3.0 11.0 0.00 0.02 0.00 41 1012.3
20260508211503 69 355 3.0 9.0 0.00 0.02 0.00 39 1012.3
20260508211003 69 329 3.0 10.0 0.00 0.02 0.00 39 1012.3
20260508210502 69 278 3.0 10.0 0.00 0.02 0.00 41 1012.2
20260508205003 69 235 4.0 14.0 0.00 0.04 0.00 40 1012.2
20260508204502 69 301 4.0 14.0 0.00 0.04 0.00 40 1012.4
20260508204004 69 22 4.0 13.0 0.00 0.04 0.00 41 1012.4
20260508203503 69 261 4.0 13.0 0.00 0.04 0.00 40 1012.4
20260508203005 69 244 4.0 10.0 0.00 0.04 0.00 44 1012.5
20260508202504 69 306 4.0 10.0 0.00 0.04 0.00 44 1012.6
20260508202003 69 258 5.0 10.0 0.00 0.04 0.00 39 1012.6
20260508201503 70 262 4.0 13.0 0.00 0.04 0.00 42 1012.5
20260508200503 69 263 4.0 10.0 0.00 0.04 0.00 41 1012.5
20260508200005 70 240 4.0 10.0 0.00 0.05 0.00 39 1012.5
20260508195001 70 254 4.0 17.0 0.00 0.05 0.00 38 1012.6
20260508194502 71 344 3.0 11.0 0.00 0.05 0.00 39 1012.6
20260508194004 70 275 3.0 9.0 0.00 0.05 0.00 37 1012.6
20260508193500 70 312 4.0 15.0 0.00 0.05 0.00 41 1012.7
20260508193002 71 155 4.0 15.0 0.00 0.05 0.00 36 1012.8
20260508192501 71 259 4.0 11.0 0.00 0.05 0.00 37 1012.8
20260508191501 70 254 4.0 12.0 0.00 0.05 0.00 37 1013.0
20260508191002 71 282 3.0 12.0 0.00 0.05 0.00 39 1013.1
20260508190502 71 323 3.0 15.0 0.00 0.05 0.00 39 1013.1
20260508190005 71 277 3.0 8.0 0.00 0.05 0.00 37 1013.0
20260508185503 71 103 4.0 10.0 0.00 0.06 0.00 37 1013.1
20260508185002 70 263 4.0 10.0 0.00 0.06 0.00 38 1013.2
20260508184002 70 251 4.0 9.0 0.00 0.06 0.00 36 1013.3
20260508183503 71 5 4.0 10.0 0.00 0.06 0.00 36 1013.3
20260508183004 71 264 4.0 10.0 0.00 0.06 0.00 39 1013.3
20260508182502 71 253 4.0 13.0 0.00 0.06 0.00 39 1013.3
20260508181502 69 240 4.0 10.0 0.00 0.06 0.00 39 1013.4
20260508181003 70 5 5.0 12.0 0.00 0.06 0.00 41 1013.5
20260508180004 70 347 3.0 7.0 0.00 0.06 0.00 41 1013.6
20260508175502 70 279 3.0 10.0 0.00 0.06 0.00 39 1013.6
20260508174501 70 305 4.0 15.0 0.00 0.06 0.00 39 1013.7
20260508173500 68 205 3.0 12.0 0.00 0.06 0.00 39 1013.8
20260508173002 68 340 3.0 10.0 0.00 0.06 0.00 43 1013.9
20260508172500 68 275 5.0 14.0 0.00 0.06 0.00 39 1013.9
20260508172002 69 294 4.0 12.0 0.00 0.06 0.00 43 1013.9
20260508171002 69 337 3.0 11.0 0.00 0.06 0.00 40 1014.1
20260508170501 68 265 4.0 11.0 0.00 0.06 0.00 44 1014.0
20260508170005 68 265 3.0 11.0 0.00 0.06 0.00 40 1014.1
20260508165002 69 326 3.0 10.0 0.00 0.06 0.00 46 1014.3
20260508164501 68 213 2.0 7.0 0.00 0.06 0.00 43 1014.3
20260508164004 68 345 5.0 15.0 0.00 0.06 0.00 43 1014.4
20260508163501 67 230 6.0 15.0 0.00 0.06 0.00 47 1014.4
20260508163005 66 335 5.0 15.0 0.00 0.06 0.00 44 1014.4
20260508162501 67 319 4.0 12.0 0.00 0.06 0.00 44 1014.5
20260508162001 67 117 3.0 13.0 0.00 0.06 0.00 45 1014.6
20260508161002 67 307 3.0 10.0 0.00 0.06 0.00 42 1014.6
20260508160502 67 271 4.0 12.0 0.00 0.06 0.00 45 1014.8
20260508160002 66 235 4.0 12.0 0.00 0.06 0.00 38 1014.8
20260508155502 66 339 3.0 11.0 0.00 0.06 0.00 44 1014.9
20260508155002 66 262 4.0 14.0 0.00 0.06 0.00 43 1014.9
20260508154503 65 272 5.0 14.0 0.00 0.06 0.00 44 1014.9
20260508154002 64 346 5.0 11.0 0.00 0.06 0.00 40 1014.9
20260508153502 64 348 4.0 11.0 0.00 0.06 0.00 39 1015.0
20260508153002 65 330 3.0 9.0 0.00 0.06 0.00 50 1015.0
20260508152502 63 256 3.0 9.0 0.00 0.06 0.00 41 1015.0
20260508152002 64 265 2.0 6.0 0.00 0.06 0.00 44 1015.0
20260508151501 63 5 4.0 9.0 0.00 0.06 0.00 43 1015.0
20260508151003 63 360 4.0 11.0 0.00 0.06 0.00 41 1015.2
20260508150501 62 333 2.0 9.0 0.00 0.06 0.00 43 1015.3
20260508150002 62 289 2.0 4.0 0.00 0.06 0.00 44 1015.3
20260508145501 62 20 2.0 4.0 0.00 0.06 0.00 49 1015.4
20260508145002 61 23 2.0 4.0 0.00 0.06 0.00 44 1015.4
20260508144459 62 25 2.0 4.0 0.00 0.06 0.00 45 1015.5
20260508144002 60 360 3.0 9.0 0.00 0.06 0.00 46 1015.5
20260508143501 60 355 2.0 9.0 0.00 0.06 0.00 44 1015.7
20260508143000 60 22 1.0 3.0 0.00 0.06 0.00 46 1015.6
20260508142500 61 22 1.0 4.0 0.00 0.06 0.00 48 1015.6
20260508142001 61 22 2.0 6.0 0.00 0.06 0.00 45 1015.7
20260508141501 61 60 2.0 6.0 0.00 0.06 0.00 45 1015.7
20260508141002 60 78 2.0 5.0 0.00 0.06 0.00 47 1015.6
20260508140500 61 313 2.0 5.0 0.00 0.06 0.00 48 1015.6
20260508140006 61 5 2.0 5.0 0.00 0.06 0.00 49 1015.6
20260508135002 60 86 3.0 5.0 0.00 0.06 0.00 46 1015.5
20260508134500 60 80 3.0 6.0 0.00 0.06 0.00 50 1015.5
20260508134002 60 78 3.0 6.0 0.00 0.06 0.00 52 1015.6
20260508133500 60 335 2.0 5.0 0.00 0.06 0.00 52 1015.6
20260508133001 59 5 2.0 6.0 0.00 0.06 0.00 55 1015.7
20260508132500 59 28 3.0 6.0 0.00 0.06 0.00 60 1015.6
20260508132001 58 346 3.0 6.0 0.00 0.06 0.00 58 1015.7
20260508131500 57 325 5.0 10.0 0.00 0.06 0.00 55 1015.6
20260508131002 57 325 4.0 10.0 0.00 0.06 0.00 59 1015.7
20260508130501 57 323 4.0 9.0 0.00 0.06 0.00 60 1015.7
20260508130006 57 32 5.0 10.0 0.00 0.06 0.00 60 1015.6
20260508125502 56 329 4.0 10.0 0.00 0.06 0.00 62 1015.5
20260508125003 57 360 4.0 10.0 0.00 0.06 0.00 64 1015.5
20260508124501 56 324 5.0 13.0 0.00 0.06 0.00 64 1015.5
20260508124002 56 329 5.0 13.0 0.00 0.06 0.00 65 1015.6
20260508122503 55 329 4.0 8.0 0.00 0.06 0.00 67 1015.4
20260508121503 54 332 4.0 9.0 0.00 0.06 0.00 68 1015.2
20260508121002 54 338 4.0 9.0 0.00 0.06 0.00 70 1015.3
20260508120502 54 333 4.0 8.0 0.00 0.06 0.00 69 1015.4
20260508120004 54 360 4.0 8.0 0.00 0.06 0.00 70 1015.3
20260508115002 53 329 3.0 8.0 0.00 0.06 0.00 72 1015.2
20260508114500 52 329 2.0 6.0 0.00 0.06 0.00 73 1015.0
20260508114001 52 327 2.0 4.0 0.00 0.06 0.00 76 1015.0
20260508113501 51 327 2.0 4.0 0.00 0.06 0.00 75 1015.0
20260508113001 51 327 1.0 4.0 0.00 0.06 0.00 76 1014.9
20260508112501 50 327 2.0 5.0 0.00 0.06 0.00 77 1014.8
20260508112001 50 327 2.0 5.0 0.00 0.06 0.00 76 1014.7
20260508111500 49 325 2.0 4.0 0.00 0.06 0.00 78 1014.6
20260508111001 49 325 2.0 6.0 0.00 0.06 0.00 78 1014.5
20260508110501 49 323 2.0 6.0 0.00 0.06 0.00 79 1014.4
20260508110005 49 334 3.0 6.0 0.00 0.06 0.00 79 1014.4
20260508105500 48 333 2.0 4.0 0.00 0.06 0.00 80 1014.3
20260508105002 48 332 2.0 4.0 0.00 0.06 0.00 80 1014.2
20260508104001 48 333 1.0 4.0 0.00 0.06 0.00 80 1014.0
20260508103500 48 333 2.0 4.0 0.00 0.06 0.00 79 1014.1
20260508103001 48 333 3.0 8.0 0.00 0.06 0.00 78 1014.0
20260508101502 49 327 3.0 8.0 0.00 0.06 0.00 78 1013.8
20260508101002 49 322 4.0 8.0 0.00 0.06 0.00 78 1013.7
20260508100502 49 342 4.0 9.0 0.00 0.06 0.00 77 1013.6
20260508100000 49 344 3.0 9.0 0.00 0.06 0.00 78 1013.5
20260508095500 48 344 2.0 6.0 0.00 0.06 0.00 81 1013.5
20260508095002 48 5 2.0 6.0 0.00 0.06 0.00 81 1013.4
20260508094001 49 324 4.0 9.0 0.00 0.06 0.00 80 1013.3
20260508093459 50 345 4.0 10.0 0.00 0.06 0.00 81 1013.2
20260508093001 49 338 3.0 10.0 0.00 0.06 0.00 82 1013.2
20260508092500 49 333 3.0 8.0 0.00 0.06 0.00 83 1013.1
20260508092003 49 334 3.0 9.0 0.00 0.06 0.00 83 1013.1
20260508091500 50 334 3.0 9.0 0.00 0.06 0.00 83 1013.0
20260508091000 50 320 4.0 11.0 0.00 0.06 0.00 83 1013.0
20260508090005 50 334 4.0 12.0 0.00 0.06 0.00 83 1012.8
20260508085459 50 327 5.0 12.0 0.00 0.06 0.00 84 1012.8
20260508085002 50 332 4.0 10.0 0.00 0.06 0.00 84 1012.7
20260508084459 50 344 3.0 10.0 0.00 0.06 0.00 86 1012.6
20260508084000 50 308 2.0 8.0 0.00 0.06 0.00 86 1012.5
20260508083459 50 273 2.0 8.0 0.00 0.06 0.00 87 1012.6
20260508083000 50 328 3.0 8.0 0.00 0.06 0.00 87 1012.5
20260508082459 50 300 2.0 6.0 0.00 0.06 0.00 88 1012.4
20260508082000 50 323 2.0 8.0 0.00 0.06 0.00 89 1012.3
20260508081459 50 281 2.0 8.0 0.00 0.06 0.00 89 1012.3
20260508080459 49 327 2.0 8.0 0.00 0.06 0.00 89 1012.1
20260508075459 49 325 2.0 9.0 0.00 0.07 0.00 89 1011.9
20260508075000 49 327 2.0 9.0 0.00 0.07 0.00 89 1011.9
20260508074459 49 315 2.0 5.0 0.00 0.07 0.00 89 1011.7
20260508073459 49 275 2.0 7.0 0.00 0.07 0.00 89 1011.5
20260508073002 49 275 2.0 7.0 0.00 0.07 0.00 89 1011.4
20260508072004 49 195 1.0 4.0 0.00 0.07 0.00 90 1011.3
20260508071500 49 194 2.0 4.0 0.00 0.07 0.00 90 1011.1
20260508071001 49 193 2.0 4.0 0.00 0.07 0.00 90 1011.0
20260508070459 49 193 1.0 3.0 0.00 0.07 0.00 90 1011.0
20260508070000 49 192 1.0 3.0 0.00 0.09 0.00 89 1010.9
20260508065459 49 192 1.0 6.0 0.00 0.09 0.00 89 1010.9
20260508065000 49 355 1.0 3.0 0.00 0.09 0.00 89 1010.9
20260508063959 49 355 2.0 6.0 0.00 0.09 0.00 89 1011.0
20260508063500 49 272 1.0 3.0 0.00 0.09 0.00 89 1011.1
20260508063000 49 270 1.0 3.0 0.00 0.09 0.00 89 1011.1
20260508062000 48 283 1.0 3.0 0.00 0.09 0.00 90 1011.0
20260508061459 48 283 1.0 3.0 0.00 0.09 0.00 90 1011.0
20260508061000 48 284 1.0 2.0 0.00 0.09 0.00 90 1011.0
20260508060459 48 284 1.0 4.0 0.00 0.09 0.00 90 1010.9
20260508055959 48 284 1.0 4.0 0.00 0.09 0.00 90 1011.0
20260508055459 48 255 1.0 2.0 0.00 0.09 0.00 90 1010.9
20260508055000 48 255 1.0 2.0 0.00 0.09 0.00 90 1010.9
20260508053959 48 255 1.0 2.0 0.00 0.09 0.00 90 1010.9
20260508053458 48 255 1.0 2.0 0.00 0.09 0.00 90 1010.8
20260508052959 48 255 1.0 2.0 0.00 0.09 0.00 90 1010.9
20260508052458 48 255 1.0 3.0 0.00 0.09 0.00 91 1010.9
20260508051459 48 255 1.0 3.0 0.00 0.09 0.00 91 1010.9
20260508050959 48 255 1.0 2.0 0.00 0.09 0.00 91 1010.9
20260508050006 48 255 1.0 2.0 0.00 0.09 0.00 91 1011.0
20260508045504 48 255 1.0 2.0 0.00 0.09 0.00 91 1010.9
20260508045004 48 255 1.0 2.0 0.00 0.09 0.00 92 1010.9
20260508044507 48 255 1.0 2.0 0.00 0.09 0.00 92 1010.9
20260508044004 48 256 1.0 3.0 0.00 0.09 0.00 92 1010.9
20260508042504 48 219 1.0 2.0 0.00 0.09 0.00 92 1010.9
20260508042005 48 219 1.0 2.0 0.00 0.09 0.00 92 1010.9
20260508041005 48 219 1.0 2.0 0.00 0.09 0.00 93 1010.8
20260508040504 48 219 1.0 2.0 0.00 0.09 0.00 93 1010.7
20260508040006 48 219 1.0 3.0 0.00 0.09 0.09 93 1010.6
20260508035503 48 219 1.0 3.0 0.00 0.09 0.09 93 1010.6
20260508035005 48 219 0.0 2.0 0.00 0.09 0.09 93 1010.6
20260508034504 48 219 0.0 1.0 0.00 0.09 0.09 93 1010.6
20260508034004 48 219 0.0 1.0 0.00 0.09 0.09 93 1010.5
20260508033503 48 219 0.0 1.0 0.00 0.09 0.09 93 1010.4
20260508033004 48 219 0.0 1.0 0.00 0.09 0.09 93 1010.5
20260508032504 48 219 0.0 1.0 0.00 0.09 0.09 93 1010.4
20260508032004 48 219 0.0 2.0 0.00 0.09 0.09 93 1010.5
20260508031504 48 219 0.0 3.0 0.00 0.09 0.09 93 1010.6
20260508031005 49 219 1.0 4.0 0.00 0.09 0.09 93 1010.6
20260508030503 49 219 1.0 4.0 0.00 0.09 0.09 93 1010.7
20260508030007 49 219 0.0 3.0 0.00 0.09 0.09 93 1010.6
20260508025505 49 219 0.0 1.0 0.00 0.09 0.09 93 1010.6
20260508025004 49 219 0.0 1.0 0.00 0.09 0.09 93 1010.5
20260508024504 49 219 0.0 1.0 0.00 0.09 0.09 93 1010.5
20260508024005 49 219 0.0 1.0 0.00 0.09 0.09 93 1010.6
20260508023005 49 219 0.0 1.0 0.00 0.09 0.09 92 1010.6
20260508022504 49 219 0.0 1.0 0.00 0.09 0.09 92 1010.6
20260508020503 50 219 0.0 2.0 0.00 0.09 0.09 92 1010.4
20260508020008 50 219 0.0 1.0 0.00 0.09 0.09 92 1010.3
20260508015503 50 219 0.0 1.0 0.00 0.09 0.09 91 1010.3
20260508015005 50 219 0.0 2.0 0.00 0.09 0.09 91 1010.4
20260508014504 51 219 1.0 2.0 0.00 0.09 0.09 91 1010.3
20260508014005 51 219 1.0 2.0 0.00 0.09 0.09 91 1010.3
20260508013504 51 219 0.0 2.0 0.00 0.09 0.09 91 1010.3
20260508013005 51 219 1.0 3.0 0.00 0.09 0.09 90 1010.3
20260508012503 51 219 1.0 3.0 0.00 0.09 0.09 90 1010.2
20260508012004 51 219 1.0 3.0 0.00 0.09 0.09 90 1010.2
20260508011504 52 219 0.0 3.0 0.00 0.09 0.09 90 1010.1
20260508011004 52 219 0.0 3.0 0.00 0.09 0.09 90 1010.1
20260508010504 51 219 0.0 3.0 0.00 0.09 0.09 89 1010.1
20260508005503 52 219 0.0 2.0 0.00 0.09 0.09 89 1009.8
20260508005005 52 219 1.0 2.0 0.00 0.09 0.09 89 1009.7
20260508004504 52 219 1.0 3.0 0.00 0.09 0.09 89 1009.6
20260508004004 52 219 0.0 3.0 0.00 0.09 0.09 89 1009.7
20260508003503 52 147 0.0 2.0 0.00 0.09 0.09 89 1009.7
20260508003004 52 147 0.0 1.0 0.00 0.09 0.09 89 1009.6
20260508002503 52 147 0.0 2.0 0.00 0.09 0.09 89 1009.6
20260508001504 53 147 0.0 1.0 0.00 0.09 0.09 89 1009.3
20260508001004 52 147 0.0 1.0 0.00 0.09 0.09 88 1009.3
20260507235501 53 147 0.0 3.0 0.00 0.09 0.09 89 1009.1
20260507235005 53 147 0.0 1.0 0.00 0.09 0.09 88 1009.1
20260507234504 53 147 0.0 1.0 0.00 0.09 0.09 88 1009.2
20260507234004 53 147 0.0 2.0 0.00 0.09 0.09 88 1009.1
20260507232503 53 147 1.0 3.0 0.00 0.09 0.09 88 1009.1
20260507231004 53 147 1.0 3.0 0.01 0.09 0.09 87 1009.1
20260507230503 53 147 2.0 3.0 0.01 0.09 0.09 86 1009.2
20260507230005 53 147 1.0 3.0 0.01 0.09 0.09 87 1009.3
20260507225004 54 246 1.0 3.0 0.01 0.09 0.09 87 1008.9
20260507223503 53 246 1.0 3.0 0.01 0.09 0.09 87 1009.2
20260507223005 54 246 1.0 4.0 0.01 0.09 0.09 87 1009.4
20260507222503 54 250 1.0 4.0 0.01 0.09 0.09 87 1009.5
20260507222004 54 253 1.0 4.0 0.01 0.09 0.09 89 1009.6
20260507221503 53 342 1.0 2.0 0.00 0.08 0.08 89 1009.4
20260507221004 53 342 0.0 1.0 0.00 0.08 0.08 89 1009.0
20260507220504 53 342 0.0 1.0 0.01 0.08 0.08 89 1009.2
20260507220008 52 342 0.0 1.0 0.01 0.08 0.08 88 1009.1
20260507215502 53 342 1.0 2.0 0.02 0.08 0.08 89 1009.0
20260507215003 53 342 1.0 2.0 0.02 0.08 0.08 88 1008.9